Theta_e
334 335 337 339 340 340 342 343 343 343 342 342 342 342 342 341 340 338 342 344 343 341 342 342 341 341 342 343 341 345 343 345 346 349 348 348 350 350 350 350 351 351 350 350 350 348 348 347 347 345 345 344 342 342 342 342 342 342 340 341 339 339 339 340 340 341 336 333 335 336 339 343 344 343 340 341 342 342 342 341 342 342 341 340 341
331 331 335 338 337 339 341 341 341 339 340 341 341 342 342 342 340 339 342 343 342 343 343 343 343 341 340 340 340 341 344 342 342 349 350 349 349 350 351 351 351 351 351 350 351 350 349 346 347 345 344 344 343 343 342 341 342 341 340 339 339 337 336 337 339 338 331 328 327 328 331 333 337 340 339 340 340 340 341 342 342 342 341 342 341
329 330 333 333 336 338 339 341 341 342 341 341 342 343 342 341 340 340 342 342 345 344 343 342 340 335 338 338 342 341 347 345 347 347 346 348 351 351 351 352 349 350 351 350 351 351 350 349 346 345 345 346 342 341 342 341 341 341 341 338 336 338 338 341 340 340 331 332 332 328 325 325 329 334 340 341 341 341 340 340 342 342 341 344 342
327 328 330 333 335 336 337 338 340 340 340 340 341 342 341 340 341 341 342 344 339 333 331 336 335 336 338 337 337 337 341 347 347 347 350 347 349 350 350 350 349 349 350 350 350 350 350 347 348 349 347 348 345 342 344 344 345 345 343 344 341 336 334 335 339 341 336 331 324 325 326 325 320 325 330 335 339 339 341 340 341 340 342 343 343
327 327 330 334 334 335 337 339 340 338 339 340 340 340 342 341 341 341 341 336 334 336 332 338 340 339 338 338 339 337 339 342 343 342 343 343 343 346 347 348 347 348 350 350 348 348 348 349 349 349 346 345 343 341 340 340 341 343 344 342 342 339 336 335 337 338 339 341 333 326 324 322 322 325 329 329 334 335 339 340 340 340 341 340 341
327 328 330 333 333 335 337 338 338 338 339 341 342 342 342 342 341 342 336 334 332 337 338 340 339 339 338 336 334 332 333 338 336 340 341 341 342 347 347 346 346 348 348 348 348 346 347 348 346 344 343 342 342 341 341 340 340 343 343 344 339 342 341 336 334 338 338 339 340 338 334 325 326 330 328 321 332 334 338 339 339 339 341 339 338
331 332 332 333 333 334 336 337 338 337 340 342 342 342 342 343 341 337 333 334 336 338 340 340 337 338 339 338 337 334 334 339 342 343 343 343 345 345 345 347 345 346 346 346 344 343 343 343 343 343 342 342 342 341 341 341 338 338 340 339 339 339 339 335 333 333 335 337 341 341 340 338 337 331 327 326 322 329 333 336 337 339 339 338 336
326 331 332 334 334 335 335 337 337 338 341 341 341 342 342 340 336 334 334 335 335 337 337 336 337 338 337 337 336 338 337 338 340 343 345 344 343 342 343 343 343 343 342 341 341 340 340 340 341 342 339 340 337 337 337 338 340 341 341 341 341 340 339 334 333 334 331 332 336 334 336 335 336 337 337 331 327 325 325 333 336 338 340 340 339
330 330 331 332 333 335 336 336 339 339 340 340 340 340 340 339 336 333 335 338 340 335 336 336 338 339 338 336 336 337 339 339 341 341 341 342 340 341 340 339 340 341 341 340 339 339 338 338 338 338 337 337 335 336 336 338 338 339 339 338 338 338 338 338 336 334 334 333 333 334 334 333 334 336 335 334 329 325 323 326 328 332 336 339 340
332 334 332 333 335 335 337 339 339 339 340 340 340 340 340 339 335 336 337 334 334 333 338 336 335 335 335 336 336 337 339 339 339 339 338 340 338 338 338 338 338 338 339 338 337 336 335 336 335 335 336 335 335 335 337 338 338 338 338 339 339 338 337 337 334 334 335 335 334 333 331 331 331 329 330 331 332 331 323 324 328 327 325 330 336
330 332 333 335 335 336 337 336 337 338 338 338 339 339 339 338 336 337 337 336 335 336 337 337 336 336 336 337 337 337 338 338 337 336 336 337 336 336 335 335 335 334 335 336 334 333 334 335 334 334 335 336 334 335 336 336 336 336 337 337 336 336 335 335 335 336 335 334 334 333 332 331 329 327 327 328 328 327 327 326 326 327 325 325 330
331 332 333 333 333 334 335 335 336 338 339 338 340 338 337 337 337 336 335 335 336 335 334 334 338 335 338 339 338 338 337 336 336 335 334 333 333 332 333 332 332 333 332 331 331 331 331 332 332 333 333 334 333 334 335 335 335 335 334 334 334 335 335 334 333 333 334 334 334 333 333 333 332 330 330 329 328 327 326 324 324 326 326 326 329
328 333 333 332 332 333 333 335 336 337 337 337 339 338 337 337 337 335 332 334 335 334 336 334 336 335 337 337 337 337 336 335 335 333 333 331 331 330 330 330 330 329 329 329 329 329 329 330 329 329 329 330 331 330 332 333 334 333 333 333 333 333 333 333 332 334 334 333 333 334 333 333 332 333 331 330 331 329 330 324 326 326 323 324 328
332 331 333 332 332 332 334 334 335 336 337 336 338 338 337 336 335 333 330 333 335 335 334 335 336 336 336 335 335 334 334 334 333 331 330 329 329 328 328 328 328 328 328 327 327 327 327 328 328 328 328 328 328 329 330 331 332 331 331 331 332 332 333 334 333 333 333 335 334 332 332 331 332 333 332 331 330 328 326 325 324 325 326 324 327
329 332 332 331 332 333 333 334 334 335 335 336 335 336 336 334 334 333 333 333 333 335 334 333 332 333 333 334 333 332 331 330 329 329 329 328 328 328 327 328 327 328 326 327 326 326 326 326 326 326 326 327 327 327 328 329 331 331 331 331 331 332 332 332 332 333 332 332 333 333 332 333 332 332 332 331 330 329 327 327 326 322 322 325 324
332 333 330 331 332 332 332 333 334 335 335 331 332 334 332 333 333 334 333 332 332 332 331 331 331 331 330 330 330 329 328 327 326 327 327 328 327 326 326 326 326 325 326 325 324 324 323 323 324 324 324 325 325 324 325 326 327 327 328 330 330 331 330 330 330 330 329 330 331 332 332 331 332 332 332 331 331 331 330 329 328 325 321 318 322
332 331 330 330 331 332 333 333 334 335 335 333 330 331 332 332 332 331 331 332 332 331 330 330 330 329 328 327 327 328 327 326 325 325 325 326 326 325 325 324 324 324 323 323 322 322 323 322 322 322 323 323 323 323 324 324 325 325 326 326 327 328 328 327 327 327 328 329 329 329 328 329 331 333 332 331 331 331 330 329 329 325 325 322 319
325 330 330 330 331 331 333 335 334 334 334 333 332 333 333 332 332 331 330 329 329 329 328 327 326 326 326 325 325 325 325 325 325 325 326 325 325 324 324 322 321 321 321 322 321 321 321 321 321 321 322 322 322 322 322 323 323 323 324 324 325 325 324 324 325 325 325 326 327 327 328 328 329 330 331 332 332 332 330 330 330 330 328 323 324
324 323 324 327 329 331 333 332 332 333 334 333 332 332 331 331 331 330 328 329 328 327 327 327 326 325 324 324 324 324 325 324 324 324 323 322 322 321 321 320 320 321 320 320 321 320 321 320 320 320 321 321 321 321 321 321 322 321 322 321 322 322 321 321 322 323 323 324 323 323 325 326 328 328 328 329 331 331 331 330 331 331 331 330 324
325 326 326 327 328 329 330 331 330 331 332 332 332 331 331 329 328 328 327 327 327 326 326 325 324 324 323 324 323 323 323 323 323 323 322 321 320 321 320 320 319 319 319 319 319 319 319 319 320 320 320 320 320 320 321 321 321 321 321 320 321 320 319 319 320 321 320 321 320 320 322 324 326 326 326 327 328 329 329 329 330 330 330 329 327
326 326 327 327 328 328 330 330 330 331 332 332 330 329 328 327 326 326 325 325 325 325 325 323 323 323 323 321 322 322 322 322 322 321 320 320 319 320 320 320 319 318 319 318 318 318 318 319 319 318 318 319 319 319 320 320 320 319 320 320 320 319 318 318 318 318 319 320 319 319 319 321 324 324 325 325 326 326 327 328 329 329 329 330 328
325 326 326 327 327 327 328 328 329 329 329 329 327 327 326 326 325 325 324 323 324 323 323 322 322 321 321 321 321 321 320 320 320 320 319 318 318 318 319 319 318 317 318 317 317 317 317 317 317 317 317 318 318 318 319 319 318 318 318 319 318 317 317 317 317 316 317 318 318 318 319 320 322 321 322 322 323 324 325 327 327 329 328 326 330
325 326 326 326 326 327 326 326 327 328 327 326 324 324 324 324 324 323 323 322 323 322 322 322 321 321 320 320 320 319 319 318 318 317 317 316 316 317 317 317 316 316 316 316 316 316 316 316 316 316 317 317 317 317 318 318 317 317 316 317 317 316 316 316 315 315 315 316 316 316 317 318 319 318 319 320 322 323 324 324 325 327 326 328 328
326 325 324 323 324 326 326 325 323 323 323 323 322 322 323 322 322 321 321 321 321 321 320 320 320 320 320 319 318 317 317 317 316 315 315 316 315 316 316 316 315 316 315 316 315 315 315 316 315 316 316 316 316 316 316 316 316 316 316 316 316 316 316 316 315 314 314 315 315 315 315 315 316 315 316 316 317 317 317 319 321 323 324 326 330
322 322 321 321 323 323 323 322 320 320 321 322 322 321 321 320 320 319 320 320 320 320 319 319 318 318 318 317 317 317 315 315 314 314 315 315 315 315 315 315 315 315 315 315 315 315 315 315 316 315 315 314 314 313 313 313 313 315 315 316 316 316 316 316 315 314 314 313 313 313 313 314 313 312 312 311 312 313 315 316 318 320 322 323 325
320 320 321 321 323 322 321 320 320 320 319 319 320 320 319 319 320 320 318 319 319 319 319 318 317 317 316 316 316 316 314 314 314 314 314 314 314 315 314 314 314 314 314 314 314 314 315 315 315 315 314 312 312 311 310 309 310 312 314 315 316 316 316 315 314 313 312 313 313 313 313 313 311 310 308 308 309 309 311 313 315 317 319 320 321
318 319 321 322 320 319 318 318 318 319 318 318 318 318 318 318 317 318 317 317 317 317 316 316 316 316 315 315 315 314 313 313 313 313 314 313 313 314 313 313 314 314 314 314 314 314 315 315 315 314 312 311 310 309 307 307 308 310 311 314 314 314 314 314 314 314 315 315 315 314 314 312 311 310 308 307 307 308 310 311 313 315 316 317 318
319 320 320 318 317 316 316 317 317 317 319 317 318 318 317 316 315 316 316 317 317 317 317 314 314 314 313 313 313 313 313 313 313 313 313 313 313 313 313 313 313 314 313 314 314 314 315 315 314 313 312 310 309 307 305 305 306 309 310 313 313 313 312 313 313 313 314 314 314 314 313 313 311 310 309 308 308 307 307 309 313 314 314 313 313
317 317 317 316 314 314 315 316 317 316 316 316 316 316 316 315 315 316 316 316 317 316 315 314 313 313 312 312 312 312 312 312 312 312 312 312 313 313 313 313 313 313 313 314 314 314 314 313 313 312 311 310 308 305 304 301 302 306 307 311 312 312 312 311 312 312 313 313 313 314 313 312 312 310 307 306 305 305 307 308 312 314 313 312 311
314 316 316 314 314 315 316 316 315 314 314 315 314 314 314 314 314 315 314 315 315 315 314 314 313 312 313 312 312 312 311 311 311 311 312 312 312 313 313 312 312 313 313 313 313 313 313 312 311 310 310 309 307 305 299 295 295 300 305 311 312 311 311 311 311 311 311 312 312 313 313 312 310 308 306 302 300 301 303 307 309 313 313 311 310
314 313 314 314 315 316 315 314 314 314 315 314 315 315 314 314 314 314 314 314 314 313 315 313 312 312 312 312 311 311 312 311 311 312 312 312 311 312 312 312 312 312 312 312 312 311 311 311 310 309 308 307 306 302 293 292 293 294 301 310 311 310 310 310 310 309 309 309 310 311 312 312 310 307 306 301 300 299 299 299 300 303 307 310 308
312 312 312 313 314 314 313 313 314 314 314 313 313 314 313 313 313 313 313 314 314 313 312 312 312 312 312 311 311 311 311 311 311 311 311 312 312 311 311 311 311 311 311 311 311 310 310 311 310 309 307 306 306 296 291 293 293 292 295 304 311 310 309 309 309 308 308 307 307 308 309 310 309 307 306 304 302 300 300 299 300 296 298 297 300
311 310 311 313 313 312 312 312 313 313 313 313 313 312 311 311 311 312 313 313 313 313 312 312 313 313 312 312 311 311 310 310 310 311 311 311 311 310 310 310 310 311 311 309 309 309 309 310 310 308 307 305 304 295 292 292 293 292 292 299 311 309 308 308 307 307 307 306 306 306 306 307 307 306 305 302 302 304 303 302 303 298 297 296 297
311 312 313 313 313 312 313 314 314 314 315 316 314 312 312 312 312 312 312 312 312 312 311 311 312 312 312 311 311 310 310 310 311 311 311 310 310 309 310 310 310 311 310 309 309 309 309 308 308 308 307 305 302 294 292 292 293 292 292 295 311 309 308 308 307 306 306 305 304 304 304 304 305 305 302 300 300 303 305 309 311 311 311 310 298
310 312 313 314 314 313 314 315 315 314 313 314 313 313 312 312 312 312 312 312 312 311 311 311 311 311 311 311 311 310 310 310 310 310 310 309 309 309 309 310 310 309 309 308 308 308 308 308 308 307 306 305 302 292 291 291 292 292 292 298 310 308 307 306 306 306 305 305 303 303 304 303 303 302 300 297 298 300 305 309 309 309 309 309 310
312 313 314 313 312 312 313 313 314 313 312 312 311 312 311 311 312 311 311 311 311 310 310 311 310 310 311 310 310 310 309 309 309 309 308 308 308 308 308 309 309 308 308 308 308 308 307 307 307 307 305 303 301 291 291 292 292 292 293 309 308 308 306 306 305 305 305 304 303 302 302 302 302 301 298 292 294 298 306 306 305 306 307 308 308
313 314 313 314 316 316 315 314 314 313 312 312 312 312 312 311 311 310 310 310 310 310 309 309 310 310 310 310 310 309 309 308 308 308 308 308 308 308 308 308 307 308 307 307 307 307 307 306 306 306 304 302 302 295 291 291 292 291 297 309 308 307 306 305 305 305 304 304 302 301 301 301 301 300 296 291 291 295 306 303 304 304 304 305 305
316 316 317 316 315 315 315 315 314 313 313 313 313 312 311 311 310 309 309 309 309 308 309 309 309 309 309 310 310 309 308 308 308 307 307 308 308 308 308 308 307 307 307 307 306 305 305 305 305 305 304 302 301 297 291 292 292 292 296 307 306 306 305 305 304 304 304 304 303 301 301 300 300 300 293 291 291 298 303 302 302 301 301 302 303
315 316 314 314 314 314 314 314 313 312 312 313 313 312 311 310 309 308 309 308 308 308 308 308 308 308 309 309 309 308 307 307 307 307 308 307 307 307 307 308 307 307 307 307 306 305 304 304 303 304 303 303 301 299 293 291 292 292 297 307 305 304 303 303 303 303 304 304 304 302 299 298 297 296 290 291 292 297 302 301 300 300 299 300 301
315 315 315 314 314 313 312 312 311 311 313 312 312 311 310 307 307 307 306 306 307 307 307 307 307 307 307 306 307 307 307 306 306 306 306 306 307 307 308 308 307 306 305 306 306 306 305 304 304 302 302 303 302 300 297 291 292 293 292 302 306 303 302 302 303 302 302 302 302 302 300 294 291 291 291 290 291 292 301 301 301 300 299 298 301
313 312 309 312 312 312 311 311 311 312 312 311 310 308 306 306 305 304 304 304 305 305 305 305 305 304 304 304 305 305 305 305 305 306 306 307 307 307 307 307 306 306 306 306 306 306 305 305 305 304 302 301 302 301 299 291 292 292 292 295 304 302 302 303 301 301 301 300 301 300 301 296 292 291 291 290 291 292 293 302 301 300 300 298 298
312 310 312 313 312 312 311 311 311 311 311 310 308 305 304 304 304 303 305 306 305 305 305 304 303 303 304 304 304 305 306 306 307 307 306 306 307 307 307 306 306 306 306 305 305 304 304 304 305 305 304 302 300 299 301 295 292 292 292 292 299 302 299 303 301 300 300 300 300 300 300 297 292 291 290 291 291 292 292 302 301 292 292 293 303
309 310 311 312 312 311 310 310 311 311 309 308 307 305 304 304 303 304 306 306 306 307 306 306 305 305 305 305 306 306 307 307 307 307 306 305 305 306 306 306 306 305 305 304 304 304 304 303 303 303 304 304 304 301 296 299 293 292 291 292 291 296 293 303 300 299 299 299 300 300 300 296 292 291 291 291 292 292 296 300 291 291 293 293 298
311 311 311 312 311 311 310 311 310 309 309 308 306 305 304 304 304 306 307 307 307 307 307 306 306 305 305 306 306 307 307 307 307 307 306 306 306 306 306 306 306 304 304 303 303 303 303 302 301 301 302 302 304 304 297 295 297 291 293 292 292 291 292 299 301 300 299 299 299 300 299 292 291 291 291 291 293 293 297 291 291 292 294 296 301
311 311 311 311 311 310 310 309 309 308 308 307 306 305 304 304 305 306 306 307 307 306 305 305 305 305 306 306 306 306 306 306 306 305 305 304 305 305 303 304 304 304 303 302 302 303 302 302 301 300 300 301 302 301 303 299 293 293 293 293 292 291 292 291 301 302 302 301 296 292 291 291 292 292 293 294 295 295 293 293 292 294 299 301 301
311 311 311 311 311 310 308 307 307 307 306 306 306 305 304 304 306 306 306 306 306 306 305 305 305 305 305 305 305 305 305 306 306 306 305 305 304 303 303 303 302 302 302 302 301 302 301 302 301 300 299 299 300 300 300 301 299 298 296 292 292 291 293 293 295 299 294 291 289 292 293 294 295 297 301 300 300 301 293 293 294 297 302 300 299
309 310 310 310 308 307 306 305 305 305 305 305 305 305 305 305 305 306 306 306 306 305 304 304 304 304 304 304 304 303 304 305 305 304 304 305 304 305 305 302 302 301 301 301 302 302 302 301 300 300 299 298 298 298 298 298 298 299 300 300 299 300 297 296 300 302 299 300 300 299 298 294 295 293 294 295 296 296 299 299 300 300 300 300 300
309 309 309 309 307 306 305 304 303 304 304 304 304 304 304 305 305 305 306 306 304 304 303 303 303 304 303 303 302 295 300 303 303 303 301 301 302 303 302 300 300 301 302 301 301 299 299 301 300 300 299 298 297 296 296 296 296 296 297 298 299 299 300 300 299 300 300 301 301 296 297 301 301 300 300 300 300 300 299 298 299 299 299 299 300
307 308 308 307 306 305 305 304 303 304 304 303 303 304 304 305 305 306 306 305 303 302 303 304 304 303 302 302 303 304 303 303 302 301 299 298 300 300 300 298 298 298 297 300 303 301 299 299 299 299 299 298 296 295 296 291 293 289 291 296 297 297 298 299 297 292 298 301 301 299 299 298 298 298 298 298 298 298 298 299 299 299 299 299 299
308 308 308 307 306 305 304 303 303 303 303 303 303 303 304 304 305 305 305 304 304 303 303 302 302 302 302 302 302 301 300 300 300 299 298 297 289 289 294 298 297 291 288 288 291 296 297 300 297 296 298 296 295 296 289 287 289 289 289 289 289 289 289 294 292 290 295 299 299 297 297 296 298 297 296 296 296 296 296 296 297 294 298 298 296
308 307 306 306 305 304 304 303 303 303 303 303 303 303 304 304 305 305 305 304 304 302 302 301 302 302 301 302 301 300 299 298 298 297 296 295 295 296 289 287 289 289 289 288 288 288 288 288 298 298 296 288 289 288 287 289 288 289 288 289 289 289 289 290 290 292 296 295 295 295 295 296 297 297 295 296 296 295 294 295 296 296 298 295 294
Wind_Speed
9 12 13 13 13 13 12 11 12 13 13 13 12 12 12 12 12 13 11 12 10 10 9 9 9 8 6 7 5 6 6 6 4 5 5 4 5 5 4 4 3 3 3 2 2 1 2 1 1 2 2 3 3 3 3 5 4 4 4 4 5 6 5 5 5 5 7 8 7 9 9 9 9 9 10 9 8 8 8 7 7 8 8 9 8
12 9 10 10 11 13 12 11 14 15 13 15 15 14 14 12 12 12 11 11 10 9 7 7 6 3 3 3 2 1 3 6 5 2 1 4 3 4 3 3 3 3 2 2 1 2 2 2 2 3 2 3 4 4 4 4 4 5 4 5 4 5 6 4 4 5 6 7 8 7 7 7 9 10 10 8 9 8 8 7 7 8 8 8 8
13 12 11 12 13 11 10 10 12 14 16 15 15 16 14 13 11 11 9 9 7 3 3 4 7 9 5 3 3 0 4 1 2 5 3 1 3 4 4 3 3 2 2 2 1 2 2 2 3 3 3 4 4 5 5 5 4 5 5 5 6 5 5 4 5 5 7 6 8 8 7 7 4 5 6 8 8 8 8 8 8 8 10 8 7
12 11 11 13 14 13 13 11 11 11 12 12 13 14 12 11 10 9 9 5 7 6 2 0 3 7 4 2 3 6 3 1 4 3 5 6 4 4 3 3 3 2 2 2 2 2 1 3 3 3 3 3 4 4 5 5 4 5 5 5 6 7 6 6 4 5 6 7 7 6 8 8 9 2 4 7 9 9 9 9 8 8 9 8 8
8 8 9 13 15 14 14 13 13 13 12 13 12 11 8 11 9 8 6 8 6 4 6 6 5 5 3 4 2 2 4 3 2 4 3 4 5 4 3 3 3 3 2 2 1 2 1 2 3 3 4 4 4 5 5 4 5 5 5 5 6 6 8 7 6 5 6 5 8 7 7 6 6 8 9 9 6 7 8 9 8 9 7 8 8
15 14 13 13 14 14 13 14 14 13 12 12 11 11 11 10 10 8 10 7 5 8 7 5 4 6 6 4 4 4 5 3 3 3 5 5 5 4 4 3 3 3 2 2 1 1 1 3 3 4 4 5 5 5 6 5 5 5 5 5 6 6 7 8 8 6 6 6 7 7 7 8 10 9 9 9 5 7 7 9 11 10 8 7 8
6 11 13 13 13 12 13 12 13 13 12 10 10 11 10 10 9 9 9 9 9 5 4 2 1 3 4 4 5 5 3 3 3 4 3 4 4 4 4 3 3 3 2 1 1 1 2 3 4 5 5 4 5 5 5 6 6 6 5 5 6 6 6 8 9 8 7 6 6 7 8 9 9 9 8 10 11 6 5 6 8 9 9 6 9
12 12 14 15 14 13 14 12 12 13 11 9 9 10 11 10 8 7 8 6 4 3 2 0 3 1 5 4 3 3 4 3 5 4 3 3 4 4 4 3 3 3 2 2 3 4 5 5 5 5 5 5 5 5 5 5 5 6 6 6 6 6 7 7 8 8 8 7 6 7 8 9 10 10 10 9 10 11 11 7 7 8 8 8 9
16 15 15 15 14 14 13 12 11 12 11 9 9 10 10 10 7 7 8 7 7 5 4 4 6 6 3 1 3 7 8 7 5 4 4 4 4 3 3 2 3 4 5 5 4 5 4 4 5 5 5 5 5 5 5 6 7 7 7 6 6 7 6 7 7 8 8 8 8 8 8 8 8 9 9 9 9 10 12 11 10 8 9 9 8
14 14 16 14 14 12 11 11 10 10 9 10 10 11 11 10 10 9 8 6 5 6 7 6 6 4 2 3 6 2 3 4 4 5 3 3 4 3 2 2 3 3 3 4 5 4 5 5 5 5 5 5 6 6 6 6 6 7 7 7 7 8 7 8 8 8 9 9 8 8 8 8 9 9 8 8 9 9 11 12 11 12 11 8 8
11 13 15 16 14 14 12 12 12 11 10 12 12 12 12 11 11 10 9 7 7 7 5 6 6 2 4 8 6 6 4 4 4 4 3 3 2 2 1 3 3 4 3 3 3 5 5 4 5 5 5 5 5 6 6 6 6 6 7 8 8 8 7 8 9 9 8 9 10 8 8 9 9 10 10 10 10 10 10 12 12 12 12 12 9
15 16 15 15 14 14 13 13 12 13 14 14 13 12 12 12 12 11 9 7 6 5 3 1 2 2 3 4 5 4 4 3 4 4 3 2 2 1 1 0 1 1 1 2 2 5 5 4 4 5 5 5 6 6 7 7 7 7 7 7 7 8 8 8 8 9 10 9 10 9 9 9 9 9 10 10 10 11 11 12 12 12 12 11 10
13 14 14 14 14 14 14 14 14 14 14 15 14 12 12 13 13 13 10 7 8 5 5 5 5 7 5 5 5 5 5 3 3 3 2 3 2 1 0 1 2 2 3 2 3 5 5 5 5 5 5 5 6 6 6 7 7 7 7 8 8 8 8 8 9 9 9 9 9 10 10 10 10 10 10 10 10 11 11 12 12 12 12 11 11
16 14 16 15 14 13 15 15 14 13 14 14 13 14 12 12 12 12 9 7 8 8 9 7 6 6 5 5 4 3 4 3 3 4 3 2 2 2 2 2 2 1 1 3 4 5 5 5 5 5 6 6 7 7 7 7 7 7 8 8 9 8 8 9 9 10 10 10 10 10 10 10 10 10 10 10 11 11 12 12 12 11 12 13 10
15 16 15 15 14 14 13 14 13 13 14 10 9 10 12 12 9 11 11 10 9 8 8 7 7 7 6 5 4 4 4 4 5 4 3 3 2 3 2 1 2 4 4 3 4 5 5 5 6 5 6 7 7 8 8 8 9 8 8 8 7 8 8 9 9 10 10 11 11 11 11 10 11 11 10 10 10 11 11 11 11 13 12 11 11
15 15 15 16 16 14 13 12 13 13 15 12 7 6 10 10 10 12 12 11 10 10 9 7 6 5 5 5 4 5 4 4 4 3 3 3 3 2 3 2 3 3 3 4 5 5 5 6 5 5 6 6 6 6 6 6 7 7 7 7 9 7 9 10 9 10 10 12 12 11 11 11 11 11 11 10 11 11 11 11 11 12 12 13 10
10 13 14 17 16 16 15 15 14 13 12 11 15 11 11 12 14 13 12 12 11 10 9 7 6 6 6 6 6 5 6 6 5 5 4 3 3 3 4 4 3 4 4 4 4 5 5 5 5 5 5 6 6 6 7 7 7 6 7 8 8 9 9 10 10 10 10 10 10 11 10 11 11 11 11 10 11 11 11 10 10 11 11 11 12
11 9 13 14 15 17 16 14 15 13 11 9 13 12 12 13 15 14 12 11 10 9 8 8 7 7 6 6 6 6 6 5 5 4 3 4 4 4 3 4 4 4 4 3 4 4 4 4 5 5 5 6 6 6 7 7 7 6 7 7 7 8 9 8 9 9 10 10 11 11 10 10 11 12 11 11 11 11 11 11 11 11 9 12 10
12 16 16 14 17 18 16 15 15 14 14 13 14 14 13 12 13 12 12 11 10 8 8 7 7 6 6 6 6 5 5 5 5 5 5 5 5 5 5 4 4 4 5 4 4 5 5 5 5 5 5 6 6 6 6 6 7 6 7 7 8 8 9 9 9 9 9 9 11 12 11 10 10 11 12 12 11 11 10 11 10 10 10 9 10
18 17 14 15 17 16 17 17 16 16 16 16 16 15 15 14 13 13 11 10 10 9 8 7 7 6 6 5 5 5 5 5 5 5 5 6 5 6 5 6 5 5 5 5 5 5 5 5 5 6 6 6 6 7 7 7 7 7 7 7 8 9 9 9 9 9 8 9 10 11 11 11 11 10 10 11 11 12 11 10 11 10 10 7 9
18 17 17 20 19 18 16 17 15 14 14 14 15 16 14 12 13 12 12 11 10 9 8 8 7 7 7 6 5 6 6 6 6 6 6 6 6 5 5 5 5 5 5 5 5 6 6 6 6 6 7 7 7 7 7 7 7 8 8 8 8 9 10 9 9 10 10 10 11 11 11 11 12 12 11 11 11 13 14 13 11 10 9 8 6
18 18 19 19 20 18 15 14 14 16 16 14 15 14 14 13 12 12 11 10 9 9 8 7 7 7 7 6 7 6 6 6 6 7 6 6 6 5 5 5 6 6 5 6 6 6 6 6 6 7 7 7 8 8 7 7 8 8 9 7 8 9 10 10 10 10 10 9 9 11 12 12 12 13 13 13 12 12 12 13 13 11 7 9 8
18 19 17 15 15 17 18 17 14 14 15 16 14 13 13 14 13 11 11 10 9 9 8 7 7 7 7 7 7 7 7 7 7 6 7 7 6 6 6 6 6 6 6 6 7 6 6 7 7 7 7 7 8 8 8 8 8 9 9 9 9 10 10 10 10 10 11 11 11 11 11 10 9 11 11 10 12 12 11 13 14 12 11 8 8
17 16 13 12 14 16 15 16 16 14 15 13 12 14 14 12 11 11 12 11 11 10 8 7 7 7 8 8 8 7 7 8 7 7 7 7 6 6 6 6 6 6 6 6 6 6 7 7 7 7 8 8 9 9 9 9 9 9 9 9 9 9 9 10 10 10 10 10 10 10 10 11 11 11 11 11 11 11 11 12 13 12 12 13 10
17 19 18 17 16 18 16 16 15 15 14 12 12 13 13 12 11 11 9 10 11 9 9 8 8 8 8 8 9 8 8 8 7 7 7 7 7 7 6 7 7 7 7 6 6 7 7 7 7 8 9 9 10 10 10 10 10 9 9 9 9 9 9 10 9 9 9 9 10 10 10 10 11 11 11 11 11 14 12 11 11 11 12 12 11
16 17 18 19 16 14 15 15 14 14 14 14 13 13 12 12 12 11 9 10 11 9 9 9 8 8 8 8 8 9 8 8 7 7 7 7 7 7 7 7 7 7 7 7 7 7 7 7 8 9 9 9 9 10 10 11 10 10 9 9 9 9 9 9 9 9 9 8 9 9 10 10 10 11 11 11 12 13 12 11 13 12 12 12 13
18 17 15 13 16 18 16 15 15 14 14 12 12 12 12 12 12 12 11 11 9 8 8 9 8 8 8 8 8 8 8 8 7 7 6 7 7 7 8 8 7 7 7 7 7 7 7 8 8 9 9 9 10 10 11 12 11 10 9 10 9 9 9 8 9 10 10 9 9 9 9 10 11 12 13 13 13 13 10 12 12 12 12 12 12
15 15 17 16 17 18 17 14 15 14 13 13 12 12 12 12 12 11 11 11 9 10 8 8 9 8 8 8 8 8 8 8 7 7 7 7 7 8 8 7 7 8 8 8 8 8 8 8 8 8 9 9 10 10 11 12 11 11 9 9 9 9 9 9 10 10 10 10 10 9 9 11 13 13 13 14 13 11 10 10 10 10 11 11 11
14 16 14 15 18 18 19 16 14 13 14 15 13 12 11 8 9 10 10 10 10 10 10 10 9 8 8 8 8 8 8 8 8 8 8 8 8 8 8 7 7 7 7 7 7 8 8 9 9 9 9 10 9 10 9 9 9 11 10 9 9 10 10 10 10 11 11 10 10 10 9 11 12 13 10 8 11 10 8 10 11 11 11 11 10
15 12 15 18 19 20 19 18 17 16 16 14 12 11 10 11 11 11 11 10 10 10 10 10 9 8 8 9 8 8 8 8 8 8 8 8 8 8 7 8 8 8 8 8 8 8 8 9 9 10 9 9 9 8 11 16 12 8 9 8 8 9 10 10 11 11 11 11 11 11 10 14 12 15 14 15 16 18 17 12 10 9 10 10 10
17 16 15 16 16 16 18 18 18 16 16 14 13 12 11 11 11 11 11 11 11 10 10 11 9 9 9 9 8 8 8 8 8 8 8 8 8 7 7 8 8 8 8 8 8 8 8 8 10 10 10 9 8 8 15 14 16 15 9 8 8 9 10 10 11 12 12 13 13 13 12 14 15 16 17 18 18 19 20 19 12 4 5 5 7
16 15 14 12 14 16 16 16 15 15 14 13 12 11 11 10 11 11 11 11 10 9 9 10 9 9 10 9 9 9 9 9 8 8 8 8 8 7 7 7 8 8 8 8 8 8 8 8 8 10 10 9 7 12 15 16 16 17 14 9 7 8 8 9 10 11 11 12 13 13 12 11 12 17 16 17 18 19 19 20 8 7 4 1 3
17 19 15 15 16 16 16 15 14 15 14 14 13 12 12 11 11 12 11 11 11 11 11 10 9 8 10 8 9 9 9 8 8 8 7 7 7 7 7 7 8 8 8 8 8 8 8 7 8 9 10 10 9 14 15 16 16 16 16 12 7 8 9 10 10 11 12 13 13 13 12 12 12 18 16 17 17 17 19 20 9 9 7 7 3
19 18 18 19 16 14 15 15 13 13 14 13 12 12 12 12 12 12 12 11 11 11 10 10 9 9 9 9 8 9 8 8 8 8 8 7 7 7 7 6 7 7 7 8 8 8 8 7 7 8 9 9 11 13 15 17 16 17 16 11 7 9 9 10 11 11 11 13 14 14 13 13 14 15 15 17 16 16 15 14 13 10 8 4 9
19 19 19 18 17 13 13 13 11 11 12 12 12 12 12 12 12 12 12 12 11 11 10 10 10 9 9 9 9 9 8 9 8 8 7 8 7 7 6 7 7 7 7 7 7 8 7 7 7 8 8 9 9 18 16 17 16 17 18 10 8 7 8 9 9 10 11 11 14 13 13 13 14 14 14 16 16 15 14 12 14 13 11 12 9
16 19 17 17 19 18 17 14 12 13 12 12 12 12 12 12 12 12 11 11 11 11 11 10 9 8 9 9 9 9 9 9 9 8 8 8 8 8 8 7 7 8 8 7 8 8 8 8 9 9 9 10 10 16 17 17 18 18 18 4 8 7 8 8 9 10 10 10 12 13 13 13 14 15 17 21 18 16 12 14 13 12 12 12 10
18 17 16 18 18 19 18 16 14 13 12 12 12 12 12 12 12 11 11 11 11 11 10 9 8 9 10 9 9 9 9 9 9 9 8 8 8 7 7 7 7 6 7 7 7 7 7 8 9 9 9 10 10 14 16 16 17 20 14 7 7 8 8 8 9 10 10 9 9 13 13 12 13 14 17 20 20 18 12 15 13 13 12 11 11
17 18 18 17 16 16 16 14 14 13 12 12 12 12 13 12 11 11 11 11 11 11 10 10 10 10 10 9 9 9 10 9 9 8 8 8 7 7 7 6 6 6 7 8 8 8 9 9 9 9 9 10 11 14 17 17 17 18 16 7 8 9 8 9 8 9 9 9 9 15 15 13 14 14 17 18 19 16 14 15 15 15 14 14 13
19 20 20 19 17 17 16 15 14 14 13 12 13 13 12 12 11 11 11 11 11 11 10 10 11 10 10 9 9 9 9 9 9 9 8 8 8 7 6 6 6 6 7 6 7 7 8 8 9 9 10 10 11 12 16 16 18 19 16 8 8 7 8 8 8 8 8 8 9 11 12 12 11 13 17 17 19 16 12 15 14 14 14 14 13
19 19 19 19 18 17 16 14 14 14 13 13 12 11 12 11 11 11 11 11 11 10 10 11 10 10 9 8 8 9 9 8 8 8 8 7 6 6 6 5 6 6 7 7 6 7 7 7 8 10 10 9 9 11 12 15 17 17 20 11 8 8 9 9 8 8 8 8 9 9 9 13 15 15 15 16 16 17 12 14 12 11 11 12 11
19 18 17 17 17 16 15 15 14 14 14 13 12 12 12 11 11 11 12 11 10 10 11 11 10 10 9 9 8 8 8 8 8 8 7 6 6 6 6 6 7 6 6 6 6 6 7 7 7 8 9 10 9 9 10 14 13 15 16 15 8 10 10 8 8 9 8 9 8 9 9 13 17 16 16 15 14 14 12 11 12 11 10 13 11
17 15 16 18 17 16 16 15 14 14 14 13 13 13 13 13 12 13 13 12 12 12 11 11 10 10 11 10 9 9 8 7 7 6 6 6 6 6 6 7 6 6 6 6 6 6 6 6 6 7 7 8 10 10 9 10 11 12 13 15 10 10 12 9 8 8 9 8 9 9 10 13 17 17 16 15 12 12 13 9 8 8 11 14 12
19 18 17 17 17 17 16 16 14 14 13 13 14 14 13 13 14 14 13 13 12 12 12 12 12 12 11 10 10 10 7 6 7 7 8 8 7 7 7 7 7 7 7 7 6 6 6 6 6 6 6 6 6 8 8 8 8 8 9 11 12 10 14 9 8 8 8 8 8 9 10 15 16 16 15 14 12 13 10 9 12 11 8 12 12
20 20 20 20 18 17 16 16 14 13 13 13 14 14 13 14 15 12 12 12 12 12 12 12 11 11 11 10 10 9 7 7 7 7 7 7 6 6 5 5 5 5 5 5 5 5 6 6 7 6 6 6 6 5 7 5 4 3 4 5 7 10 12 9 7 7 7 8 9 9 10 16 15 15 14 10 10 16 11 12 13 10 9 12 13
21 21 19 18 18 18 17 16 14 14 13 13 13 15 16 15 13 13 12 12 12 12 12 12 12 11 10 10 9 8 8 8 7 7 7 7 6 6 6 5 5 5 5 5 5 5 6 6 6 7 7 7 6 7 5 4 3 1 2 1 5 6 7 10 7 6 6 6 6 11 12 13 13 14 13 12 10 12 16 18 16 15 15 13 13
20 20 19 19 18 17 17 17 16 15 13 13 13 14 16 14 13 12 12 13 13 13 12 12 11 10 10 10 9 9 8 7 7 6 6 5 6 5 6 5 5 5 5 5 5 6 6 6 6 6 7 7 7 7 8 8 2 4 5 6 4 8 9 9 8 9 10 9 13 12 11 10 13 11 10 11 11 10 11 14 14 15 14 15 13
20 19 19 18 18 17 17 17 16 14 13 14 15 13 14 13 13 13 13 13 13 13 12 12 11 10 10 10 9 8 7 6 7 6 6 5 5 5 5 5 5 6 6 5 6 6 6 6 6 6 6 6 7 8 8 8 9 9 9 6 6 5 6 8 7 6 9 6 5 8 8 9 6 12 11 8 11 11 11 13 12 13 12 13 14
19 19 19 18 17 18 18 17 16 14 14 14 13 14 14 13 13 13 13 13 12 12 12 12 12 10 9 9 9 6 6 7 7 7 7 6 6 7 7 8 8 8 6 6 6 7 7 6 5 5 6 6 6 7 8 8 8 9 9 9 8 8 8 8 8 9 11 9 7 7 8 9 9 10 10 10 10 11 11 11 12 12 12 12 12
19 18 18 16 17 18 18 17 15 14 14 14 14 13 14 14 13 13 13 13 12 12 12 12 10 9 10 9 7 7 7 7 8 9 10 10 8 7 9 10 10 8 7 7 7 7 7 7 6 6 5 5 6 7 6 5 6 7 6 7 8 8 8 8 10 13 11 8 7 8 8 9 9 10 10 11 11 11 11 11 13 12 12 13 12
18 17 17 18 18 18 18 17 15 14 14 14 14 14 14 13 13 13 13 12 12 11 11 10 10 9 9 8 8 8 8 8 9 9 10 10 14 16 12 8 8 9 11 13 11 7 5 6 7 8 7 7 6 5 5 8 9 9 9 9 9 10 11 10 12 15 12 5 7 6 7 8 9 9 9 9 9 11 11 11 11 11 12 12 11
19 18 19 19 18 18 18 17 15 14 14 14 14 14 14 13 13 13 13 12 12 10 9 9 9 8 8 9 8 9 9 9 9 9 9 10 9 9 12 12 9 8 10 11 10 9 13 13 8 5 6 7 7 4 5 6 8 9 10 11 12 12 14 14 17 10 6 5 5 6 5 6 8 9 7 8 8 9 8 8 10 11 11 10 9
Wind_Direction
131 133 135 140 143 145 148 153 146 144 149 155 158 170 172 172 171 176 174 176 174 175 179 185 185 182 172 185 164 194 164 167 182 161 195 148 162 173 158 161 169 169 179 182 222 219 263 294 290 288 286 280 296 295 298 297 298 294 294 284 287 291 284 272 264 270 284 282 270 261 259 253 249 246 256 254 255 260 259 258 259 265 259 261 254
127 131 143 136 150 149 149 153 150 149 155 161 164 168 172 171 176 177 176 179 181 179 174 186 187 155 60 322 202 209 214 168 160 142 299 132 177 148 151 169 156 160 178 196 194 247 283 276 282 288 296 288 291 296 290 283 278 275 280 286 270 280 288 286 285 287 279 291 303 305 285 272 245 234 246 252 257 253 254 254 259 259 261 260 259
147 157 165 144 149 151 156 153 157 156 159 164 168 168 170 173 176 175 180 180 178 98 17 25 21 13 356 311 300 83 279 171 143 163 152 190 176 160 157 163 161 153 170 174 184 241 261 289 292 301 294 300 294 290 290 287 293 296 295 288 296 284 274 271 276 271 292 302 298 287 291 305 288 233 234 253 255 259 254 248 247 249 255 255 254
161 169 163 156 151 160 159 159 156 157 160 167 167 169 170 175 173 173 176 158 60 67 86 19 178 182 188 123 39 314 298 133 144 125 177 171 176 168 157 158 157 153 159 189 191 229 268 286 292 296 301 300 300 296 293 294 288 288 281 277 284 291 290 294 277 274 277 303 302 315 313 302 299 260 229 247 250 252 251 249 241 245 246 245 248
148 153 177 164 162 164 163 161 158 164 166 169 168 164 170 170 166 171 114 70 55 102 178 219 180 158 127 109 87 91 267 255 150 175 192 175 170 168 146 145 155 146 156 193 198 213 265 300 307 309 302 299 297 293 289 295 294 288 287 282 279 288 297 300 296 285 273 274 292 303 301 291 308 318 326 298 259 242 234 245 250 237 238 243 240
162 163 173 176 171 162 165 165 162 160 167 171 170 163 161 163 162 141 94 109 181 214 207 195 153 148 152 133 137 120 229 214 195 177 206 180 137 131 130 127 129 119 161 170 93 319 13 303 304 296 299 303 302 304 301 298 289 281 286 298 298 293 297 296 294 290 279 270 263 269 278 291 303 312 311 300 310 270 240 223 229 243 229 229 242
168 169 172 177 169 165 167 171 163 162 165 163 162 158 151 151 112 86 122 147 179 202 177 83 198 185 164 172 156 181 192 212 208 185 166 120 117 121 112 107 104 111 101 105 124 338 329 323 325 318 311 307 313 304 305 301 302 307 307 298 302 307 294 290 293 299 298 268 263 265 268 268 280 294 298 307 300 301 284 269 262 249 240 235 254
176 183 180 175 174 169 169 170 169 164 156 155 151 148 140 119 114 143 121 139 152 153 115 49 289 256 225 194 221 210 185 198 184 128 114 112 118 112 121 115 89 78 68 20 359 357 356 330 327 324 314 311 315 312 310 310 310 307 307 304 302 297 297 292 299 300 300 301 299 288 278 280 278 269 265 279 287 295 291 283 275 265 257 229 231
169 173 174 175 175 169 169 172 168 156 151 147 135 139 138 126 133 119 138 149 127 108 153 234 224 217 205 230 222 201 186 184 161 147 111 104 102 92 51 50 78 27 18 14 354 348 330 324 328 315 316 313 304 295 295 318 315 310 305 303 303 303 302 299 296 296 298 298 305 294 292 286 282 271 270 269 275 281 286 285 282 264 252 241 244
177 171 171 173 170 168 162 161 149 145 138 133 142 143 140 136 128 140 147 135 129 158 144 173 240 220 216 223 230 195 177 144 110 107 123 99 100 69 59 20 357 40 26 15 358 342 341 334 320 324 317 316 320 319 321 305 303 305 307 306 307 302 297 296 298 299 295 294 291 296 293 294 289 287 277 274 261 255 273 287 292 292 282 258 236
170 184 170 168 170 160 161 157 153 148 144 148 146 144 140 140 139 144 139 133 141 144 157 188 211 142 189 205 179 157 127 122 129 113 123 112 112 96 46 36 10 14 0 6 17 353 334 327 334 329 311 310 307 314 315 316 309 306 308 304 296 292 292 293 292 289 290 289 289 288 288 286 292 292 294 294 290 287 285 282 285 286 291 291 280
182 181 164 161 158 157 161 154 158 153 153 152 141 140 139 137 141 143 141 132 125 122 143 340 74 121 195 138 123 115 114 118 120 120 116 104 72 36 58 81 132 93 11 356 7 355 338 335 338 333 333 337 329 334 331 321 318 318 307 298 300 297 293 291 288 289 290 290 289 287 285 287 285 283 287 288 289 289 289 289 289 292 292 288 290
187 168 161 153 155 157 160 158 157 153 149 147 142 137 140 141 142 136 134 129 116 111 95 134 204 169 140 118 112 98 87 86 102 109 83 43 39 79 311 267 107 23 33 336 12 350 341 346 350 341 337 335 331 326 321 319 312 309 300 299 295 296 296 296 295 295 297 293 294 294 289 288 284 286 286 286 287 286 283 285 285 289 289 294 292
169 165 158 154 152 162 159 152 147 148 148 143 143 139 137 135 133 123 124 111 116 138 154 139 111 94 84 72 80 75 74 83 74 64 90 85 83 74 19 25 24 61 23 7 6 348 352 346 345 342 338 339 332 329 324 314 311 304 306 307 311 308 305 302 298 297 295 291 290 289 290 288 287 287 285 284 281 282 284 285 292 294 294 290 290
173 160 157 151 153 148 147 144 146 152 146 129 133 144 128 125 121 113 120 125 126 121 105 93 80 64 57 58 82 92 84 59 57 52 48 62 77 71 54 15 7 13 25 18 10 350 357 345 349 345 352 343 343 341 339 328 332 326 312 310 307 304 306 307 304 304 300 298 298 294 290 289 289 287 285 283 282 282 283 289 292 293 293 287 287
160 157 152 147 144 142 144 146 151 153 135 137 137 116 125 124 120 122 124 117 116 110 105 97 96 99 92 93 86 84 97 101 103 93 84 49 34 60 83 54 27 15 37 15 14 5 357 359 347 357 352 348 344 341 336 329 331 326 316 318 322 318 315 315 311 309 308 308 304 299 294 289 287 286 287 284 284 284 285 281 281 280 286 291 292
155 147 149 142 145 149 150 153 154 141 133 138 139 148 145 138 127 119 118 116 117 113 107 108 101 105 101 94 92 85 87 86 85 86 94 80 76 45 50 47 45 36 31 30 8 17 12 5 358 357 357 352 347 347 343 336 340 328 330 333 322 328 329 323 316 308 306 300 295 298 300 297 293 291 289 287 285 285 282 284 282 280 279 283 290
163 143 132 137 149 157 162 159 153 140 132 130 128 132 126 124 124 124 124 120 115 110 106 101 97 88 88 89 88 86 90 91 95 98 81 88 83 75 58 65 50 44 46 32 32 22 12 19 13 3 0 5 357 352 350 347 345 337 339 328 335 340 329 321 319 315 310 312 309 304 299 293 294 296 296 300 296 290 287 286 285 284 286 279 284
120 129 132 144 158 159 153 142 137 139 140 128 117 115 115 118 119 121 119 117 113 111 108 106 104 100 97 97 101 102 98 98 98 88 89 87 80 75 75 70 62 51 42 34 32 28 20 20 20 12 11 11 2 358 351 349 345 343 342 335 340 339 331 328 326 324 323 321 315 312 309 300 297 296 300 302 300 298 291 290 288 284 278 275 273
148 150 149 144 140 145 144 142 145 145 138 130 125 123 118 120 117 115 113 113 111 106 102 99 95 100 96 88 86 83 79 79 83 88 88 84 81 84 82 72 60 50 45 40 38 31 30 23 23 19 15 12 6 3 2 354 351 351 345 343 340 338 336 335 334 333 324 318 316 313 310 307 308 305 299 299 299 297 299 296 291 289 285 295 301
153 155 147 146 145 146 138 133 131 133 132 129 130 127 119 110 113 121 120 116 111 109 106 104 107 103 97 92 85 83 82 79 81 87 85 76 74 73 71 73 68 55 48 47 41 33 26 23 24 23 14 12 7 7 4 356 353 352 348 344 341 341 339 340 337 333 333 331 329 322 317 312 311 310 314 315 315 315 310 301 298 296 298 287 271
151 151 150 151 152 145 128 135 140 139 137 124 128 131 130 128 130 124 119 115 112 106 102 105 103 101 101 96 83 77 76 81 79 76 78 76 68 67 69 69 67 59 48 47 44 38 28 27 24 18 17 15 10 11 6 360 356 352 349 345 343 342 341 338 336 332 334 334 328 326 328 329 332 332 331 325 324 318 313 314 312 309 299 290 273
152 151 147 142 141 142 144 144 143 140 132 129 131 134 133 132 131 128 122 117 112 107 105 103 103 106 101 89 90 93 94 85 81 78 77 75 72 64 66 66 65 63 55 48 44 37 32 29 26 25 22 19 17 15 10 5 2 355 352 351 348 345 342 339 337 337 336 334 331 331 329 332 331 325 323 320 317 318 325 319 316 315 306 287 274
146 137 122 124 134 145 148 138 137 137 136 128 130 132 133 133 127 124 122 123 115 110 107 105 103 100 105 106 101 97 89 86 83 79 80 81 75 70 68 70 67 64 63 60 50 43 42 36 35 34 30 23 20 18 7 3 359 355 355 353 349 348 347 344 342 341 339 338 339 337 339 338 337 334 336 336 333 333 325 322 319 318 319 320 312
130 136 140 142 150 151 147 140 136 135 131 128 132 129 127 129 125 124 119 112 113 116 115 115 116 115 110 108 105 98 92 85 83 82 82 81 80 76 68 68 68 64 58 55 53 45 45 44 41 33 31 22 20 12 6 2 356 352 352 352 351 350 350 351 353 351 349 345 342 344 345 347 349 346 345 339 334 330 326 321 320 320 319 317 317
140 144 145 152 152 141 137 137 137 135 134 134 131 128 129 130 128 122 108 110 111 113 117 119 121 116 113 106 101 95 88 87 87 84 79 79 81 79 76 70 65 67 64 59 61 54 46 49 42 39 28 21 17 14 7 0 354 350 345 350 356 357 355 359 357 352 346 342 343 347 351 353 353 353 342 335 333 329 327 327 326 324 325 322 319
146 150 151 138 134 139 133 134 135 134 134 135 134 133 131 130 127 125 115 102 97 100 108 120 121 116 111 101 93 91 94 90 85 84 85 81 76 76 74 71 69 69 67 67 65 62 55 47 44 40 32 23 19 15 9 2 357 354 346 343 1 0 354 358 349 348 349 347 351 358 357 4 355 350 345 339 335 332 330 326 322 326 329 328 325
147 146 141 136 135 132 133 133 135 135 133 128 132 136 140 137 131 126 119 118 122 120 118 122 120 116 111 104 102 98 92 90 90 86 83 83 82 79 77 74 73 68 66 64 60 58 57 52 44 40 32 26 20 17 12 5 360 355 348 341 6 1 356 0 355 352 354 353 354 356 358 357 356 356 349 344 339 331 320 319 321 330 334 334 333
145 145 140 134 134 133 135 137 134 129 127 133 137 138 133 125 122 122 122 123 128 129 129 124 119 117 112 109 105 101 99 98 94 93 88 82 80 79 79 79 74 73 68 62 60 57 57 52 45 39 32 27 25 17 11 350 345 344 340 341 8 4 6 4 1 4 6 2 357 358 1 5 2 360 341 334 323 312 316 321 322 330 337 339 339
142 136 135 137 137 138 136 134 132 130 132 133 135 137 137 134 125 120 121 125 128 127 131 130 126 122 119 112 107 105 103 100 99 95 93 92 86 80 80 76 73 69 66 63 60 54 54 53 46 39 34 30 26 23 349 336 333 333 330 332 11 14 13 13 11 7 11 7 3 2 2 9 5 0 354 354 342 331 319 311 304 310 336 344 345
139 135 135 134 131 127 129 135 138 139 140 141 143 141 138 130 121 122 124 126 132 148 157 118 126 124 120 114 109 107 105 101 102 99 94 90 85 83 80 77 74 71 67 64 61 64 57 50 49 43 36 33 33 8 345 340 338 338 337 335 21 20 22 16 16 15 10 5 1 357 357 358 360 358 355 353 344 335 326 320 322 293 352 1 358
129 118 112 113 126 127 133 137 136 136 135 137 137 136 135 127 124 125 127 130 132 130 120 128 129 133 119 114 113 109 106 103 102 100 97 91 90 88 83 80 78 74 68 63 65 60 59 56 50 48 39 32 31 5 351 348 345 344 342 331 22 27 27 17 18 17 13 9 3 357 356 352 357 358 354 351 342 334 326 318 343 172 147 49 16
125 127 131 134 128 128 134 139 141 140 139 139 137 133 130 128 127 127 132 134 134 133 133 135 129 121 110 114 114 110 108 108 103 98 93 93 91 87 84 83 80 79 75 69 65 61 59 55 54 53 44 33 27 1 353 352 348 347 341 334 32 29 27 25 18 16 13 11 5 356 355 352 353 354 357 351 341 335 329 315 336 168 202 198 186
135 140 141 137 134 134 137 138 140 141 140 137 134 131 131 133 131 134 137 135 133 130 126 126 126 123 121 115 110 110 109 108 107 101 99 98 97 94 96 93 92 85 84 80 68 66 62 58 51 50 49 36 24 358 354 357 350 347 343 328 43 29 31 23 19 17 12 12 7 359 357 356 355 358 359 350 342 335 328 326 345 350 348 196 200
143 148 145 139 131 127 134 142 146 138 131 129 128 130 131 131 136 136 135 134 131 125 119 119 121 129 120 115 115 111 109 105 101 99 99 95 91 97 92 83 80 80 79 74 76 72 70 66 59 51 48 38 22 4 360 359 354 348 343 319 44 32 30 23 19 13 16 19 10 4 360 359 358 2 358 343 340 334 323 340 346 347 345 346 354
148 145 143 140 142 142 144 140 133 129 133 134 131 133 132 133 135 135 133 128 125 121 117 118 120 115 115 119 117 116 112 111 109 108 105 100 97 91 93 94 86 75 70 69 65 64 68 68 62 56 52 43 30 12 0 0 356 352 337 4 40 38 24 28 20 18 21 23 17 12 5 6 2 5 353 341 337 331 334 356 348 347 345 343 348
146 146 147 147 143 142 139 141 144 137 135 135 138 138 134 135 135 135 129 124 120 115 114 118 122 117 116 116 116 115 113 111 108 108 106 106 106 103 91 83 90 92 89 82 82 74 63 58 54 56 56 47 33 16 6 3 360 357 347 17 47 41 31 27 32 23 23 31 43 25 19 11 7 6 348 339 341 334 353 0 356 353 352 346 347
148 145 140 140 140 138 141 143 136 135 137 140 139 138 140 136 132 129 127 124 120 118 118 116 111 108 114 117 117 117 116 113 111 108 107 108 107 98 97 98 94 98 95 93 90 83 74 66 58 53 49 53 39 22 12 6 7 1 349 1 47 44 35 31 34 32 25 24 65 55 22 17 9 2 342 340 347 344 5 7 2 0 359 357 352
153 145 144 141 139 146 144 137 136 137 140 143 141 142 138 137 132 126 119 115 113 113 116 115 113 112 113 114 112 110 109 111 112 112 111 109 103 104 117 114 104 98 95 97 93 89 86 76 67 60 43 51 48 33 16 10 10 8 1 3 43 48 37 35 27 28 30 25 17 54 35 3 354 341 337 342 348 355 356 18 6 6 4 2 357
142 143 143 141 143 143 139 138 140 139 142 143 150 136 120 114 108 103 101 101 102 101 101 102 103 102 101 101 104 107 110 114 111 106 102 101 105 106 100 102 103 99 98 96 92 89 91 87 78 64 54 45 51 48 28 15 15 12 8 2 40 19 24 31 27 22 25 23 29 23 28 3 346 338 333 334 338 351 356 14 8 6 353 343 329
136 139 143 144 144 141 140 142 141 143 142 138 132 124 125 120 113 108 107 107 104 102 101 101 108 111 110 106 101 106 112 110 106 104 109 111 107 106 99 94 92 91 96 97 98 97 90 89 85 81 72 59 47 48 49 27 19 16 13 4 28 24 359 14 24 22 21 21 18 19 18 354 340 333 332 327 328 336 336 13 9 8 346 340 322
136 139 152 151 144 138 142 142 144 143 143 141 139 130 126 128 121 116 118 119 118 119 123 126 127 122 119 119 116 108 103 108 115 118 117 110 113 111 110 104 101 103 98 92 91 89 88 84 87 85 87 85 70 56 46 46 26 19 13 11 15 12 351 342 25 24 19 24 15 13 10 341 330 327 325 325 320 331 323 8 353 325 333 2 7
137 144 147 147 146 143 141 143 146 145 142 140 135 129 126 125 123 125 129 130 131 135 135 131 124 119 118 115 115 118 119 118 118 118 116 115 112 108 107 110 113 110 104 102 95 95 88 79 76 67 69 78 89 83 65 57 47 29 19 3 0 354 340 342 26 25 24 15 14 2 352 332 323 318 322 320 340 352 336 341 327 338 11 15 20
149 147 147 148 145 144 144 145 145 142 139 136 133 129 128 126 127 132 131 134 136 132 124 121 120 119 119 118 121 123 122 119 118 116 112 109 106 106 109 108 114 107 104 100 97 89 80 77 70 66 59 51 46 83 107 92 98 64 26 9 339 347 338 338 349 31 16 15 2 351 328 312 315 314 319 317 6 359 355 328 318 328 31 37 26
150 149 145 142 144 147 147 144 142 136 136 134 132 128 129 127 128 133 135 131 127 126 126 124 123 123 127 126 122 118 116 118 119 117 112 108 108 110 106 103 90 86 92 96 89 78 79 75 70 65 56 46 40 34 40 141 193 135 157 185 272 286 314 315 323 22 358 351 314 303 305 309 321 334 326 355 14 12 357 353 349 358 29 31 24
145 144 144 144 146 142 138 136 135 135 132 129 129 131 129 129 135 134 132 130 130 128 125 124 125 128 128 128 124 118 112 106 103 99 95 94 98 101 99 91 88 88 89 81 70 77 72 67 69 62 59 52 41 35 27 21 9 235 216 202 249 273 297 296 266 272 287 284 277 296 316 325 352 342 351 13 10 6 10 1 7 5 26 29 33
143 139 137 143 141 139 137 135 132 132 131 132 134 132 131 133 133 134 133 134 130 128 126 129 129 127 123 120 121 118 118 113 102 94 90 89 81 81 69 74 89 93 84 62 67 64 61 69 66 65 61 59 48 40 27 25 17 7 4 9 9 344 342 355 5 7 340 317 322 348 340 307 339 341 346 359 13 6 17 16 17 23 19 23 26
137 138 141 141 141 139 137 134 132 133 134 136 136 134 135 135 135 135 133 130 129 130 132 130 127 126 126 120 113 133 129 110 95 79 77 85 88 73 59 49 30 18 27 75 78 58 52 41 48 56 64 53 56 47 34 19 14 5 357 3 11 8 2 9 3 348 332 327 354 349 6 7 14 8 9 13 16 15 17 23 17 20 23 18 19
138 140 142 142 141 138 136 133 133 135 136 137 136 137 136 137 136 134 134 134 132 134 130 130 129 124 117 128 133 120 105 102 95 83 64 42 34 64 86 72 45 36 30 18 43 60 41 53 42 29 33 67 52 45 32 5 329 331 318 341 2 0 357 345 342 326 319 325 10 2 12 11 14 15 10 12 14 14 18 19 22 15 23 19 19
140 143 142 139 138 136 135 134 134 137 138 137 138 137 138 137 137 138 138 135 137 135 134 132 130 129 135 132 121 116 114 112 110 105 92 73 52 48 36 58 73 53 51 44 47 54 11 21 74 53 33 35 44 39 359 339 332 321 321 317 319 317 324 320 315 320 303 334 8 15 9 15 12 19 12 12 13 15 14 16 20 17 19 21 20
145 143 140 139 138 135 134 135 137 139 138 138 138 138 138 137 137 138 139 140 138 136 134 131 135 138 133 128 129 127 122 114 113 112 108 106 101 72 60 52 55 51 48 54 63 54 42 34 27 91 88 69 74 30 342 326 323 328 329 320 319 322 315 316 314 334 323 13 3 15 11 17 16 19 16 10 12 18 13 17 16 18 19 18 19